Simultaneous Nadir Overpasses (SNOs) Predictions

Prediction of SNOs between GOES-17 and LANDSAT-8 Satellite Orbit:

Table of predicted SNOs for the next 14.0 days since TLE Epoch: 8/26/2022
Index Date Time (GOES-17) GOES-17 Lat,Lon LANDSAT-8 Lat,Lon Distance(km) Time Diff (sec)
1 08/27/2022 19:23:02 -0.05,-137.32 -0.06,-137.23 9.38 80
2 08/29/2022 19:10:51 -0.05,-137.32 -0.71,-134.28 345.85 80
3 08/30/2022 07:29:35 0.06,-137.32 -0.41,-139.47 244.67 80
4 09/01/2022 07:20:04 0.06,-137.31 0.26,-136.52 91.23 80
5 09/01/2022 19:38:38 -0.06,-137.31 0.87,-141.67 495.38 80
6 09/03/2022 07:07:52 0.05,-137.30 0.86,-133.55 426.01 80
7 09/03/2022 19:26:26 -0.05,-137.29 0.26,-138.70 160.81 80
8 09/05/2022 19:16:55 -0.05,-137.26 -0.35,-135.74 172.79 80
9 09/06/2022 07:35:38 0.05,-137.25 -0.76,-140.93 418.48 80
10 09/08/2022 07:23:26 0.05,-137.22 -0.14,-137.97 85.58 80
